Flag for Germany Weather past 2 weeks in Ratingen, North Rhine-Westphalia, Germany

Now
57 °F

Fog.


Feels Like: 57 °F
Forecast: 69 / 89 °F
Wind: 2 mph from North

Location: Duesseldorf

Current Time: Aug 29, 2015 at 8:54:03 AM

Latest Report: Aug 29, 2015 at 7:50 AM


Visibility: N/A

Pressure: 30.21 "Hg

Humidity: 94%

Dew point: 55 °F

Location of RatingenLocation

Historic Weather in Ratingen — Graph

°F

Ratingen temperature yesterday

Maximum temperature yesterday: 70 °F (at 2:50 PM)
Minimum temperature yesterday: 55 °F (at 12:20 AM)
Average temperature yesterday: 62 °F

Past Weeks' High & Low Weather Summary

 TemperatureHumidityPressure
High82 °F (Aug 14, 4:50 PM)100% (Aug 16, 2:50 AM)30.24 "Hg (Aug 16, 2:50 AM)
Low50 °F (Aug 19, 4:50 AM)30% (Aug 22, 5:20 PM)29.50 "Hg (Aug 24, 4:50 PM)
Average65 °F74%29.94 "Hg
* Reported Aug 14 7:20 AM — Aug 29 7:20 AM, Ratingen, Weather by CustomWeather, © 2015

Note: Actual official high and low records may vary slightly from our data, if they occured in-between our weather recording intervals... More about our weather records

Advertising

Ratingen weather history for previous 24 hours

 ConditionsComfort  
Time TempWeatherWind HumidityBarometerVisibility
7:20 AM
Sat, Aug 29
54 °FFog.2 mph94%30.18 "HgN/A
6:50 AM54 °FFog.1 mph94%30.18 "HgN/A
6:20 AM54 °FFog.2 mph94%30.18 "HgN/A
5:50 AM54 °FFog.2 mph94%30.18 "HgN/A
5:20 AM52 °FClear.3 mph94%30.18 "Hg10 mi
4:50 AM52 °FClear.3 mph94%30.18 "Hg10 mi
4:20 AM54 °FFog.1 mph94%30.18 "HgN/A
3:50 AM54 °FFog.6 mph94%30.18 "HgN/A
3:20 AM54 °FFog.2 mph94%30.18 "HgN/A
2:50 AM54 °FClear.2 mph94%30.18 "Hg10 mi
2:20 AM52 °FClear.5 mph94%30.18 "Hg10 mi
1:50 AM54 °FClear.3 mph94%30.18 "Hg10 mi
1:20 AM55 °FClear.3 mph94%30.18 "Hg10 mi
12:50 AM55 °FClear.3 mph94%30.18 "Hg10 mi
12:20 AM55 °FClear.3 mph94%30.18 "Hg10 mi
11:50 PM
Fri, Aug 28
57 °FClear.3 mph88%30.18 "Hg10 mi
11:20 PM57 °FClear.3 mph88%30.15 "Hg10 mi
10:50 PM57 °FClear.2 mph88%30.15 "Hg10 mi
10:20 PM59 °FClear.1 mph82%30.15 "Hg10 mi
9:50 PM61 °FClear.3 mph77%30.15 "Hg10 mi
9:20 PM61 °FPassing clouds.2 mph83%30.15 "HgN/A
8:50 PM64 °FPassing clouds.3 mph73%30.12 "HgN/A
8:20 PM66 °FPassing clouds.3 mph64%30.12 "HgN/A
7:50 PM68 °FPassing clouds.5 mph60%30.12 "HgN/A
7:20 PM68 °FPassing clouds.6 mph60%30.12 "HgN/A
6:50 PM68 °FPassing clouds.6 mph60%30.09 "HgN/A
6:20 PM70 °FPassing clouds.6 mph53%30.09 "HgN/A
5:50 PM70 °FPassing clouds.6 mph57%30.09 "HgN/A
5:20 PM70 °FPassing clouds.6 mph53%30.09 "HgN/A
4:50 PM70 °FPassing clouds.8 mph57%30.09 "HgN/A
4:20 PM68 °FScattered clouds.9 mph60%30.09 "HgN/A
3:50 PM68 °FScattered clouds.7 mph60%30.09 "HgN/A
3:20 PM70 °FPassing clouds.8 mph60%30.09 "HgN/A
2:50 PM70 °FPassing clouds.8 mph60%30.09 "HgN/A
2:20 PM68 °FPassing clouds.7 mph64%30.07 "HgN/A
1:50 PM68 °FPassing clouds.7 mph64%30.07 "HgN/A
1:20 PM66 °FScattered clouds.7 mph64%30.07 "HgN/A
12:50 PM66 °FScattered clouds.9 mph68%30.07 "HgN/A
12:20 PM64 °FScattered clouds.7 mph68%30.07 "HgN/A
11:50 AM64 °FScattered clouds.8 mph73%30.07 "HgN/A
11:20 AM63 °FPartly sunny.8 mph77%30.04 "HgN/A
10:50 AM63 °FScattered clouds.7 mph83%30.04 "HgN/A
10:20 AM61 °FPassing clouds.6 mph83%30.04 "HgN/A
9:50 AM61 °FPassing clouds.7 mph83%30.04 "HgN/A
9:20 AM59 °FPassing clouds.7 mph88%30.04 "HgN/A
8:50 AM59 °FPassing clouds.8 mph88%30.01 "HgN/A
8:20 AM57 °FPassing clouds.7 mph94%30.01 "HgN/A
Weather by CustomWeather, © 2015

See weather overviewHow to use our weather pages